Hutchinson, MN

4:00 AM CDT on August 27, 2016 (GMT -0500)
Hutchinson Municipal-Butler

Weather History for KHCD - July, 2014

Change the Weather History Date:

Tuesday, July 8, 2014

  Actual Average Record
Temperature  
Mean Temperature 67 °F -  
Max Temperature 75 °F 84 °F 99 °F (1988)
Min Temperature 59 °F 61 °F 47 °F (1958)
Cooling Degree Days 2    
Growing Degree Days 17 (Base 50)    
Moisture  
Dew Point 56 °F    
Average Humidity 68    
Maximum Humidity 91    
Minimum Humidity 43    
Precipitation  
Precipitation 0.00 in - - ()
Sea Level Pressure  
Sea Level Pressure 29.84 in    
Wind  
Wind Speed 14 mph (WNW)    
Max Wind Speed 23 mph    
Max Gust Speed 30 mph    
Visibility 10 miles    
Events      
Averages and records for this station are not official NWS values.
T = Trace of Precipitation, MM = Missing Value Source: NWS Daily Summary

Daily Weather History Graph

Daily Weather History Graph

Search for Another Location

Airport or City:

Trip Planner

Search our weather history database for the weather conditions in past years. The results will help you decide how hot, cold, wet, or windy it might be!

Date:

Astronomy

Jul. 08, 2014 Rise Set
Actual Time 5:39 AM CDT 9:05 PM CDT
Civil Twilight 5:03 AM CDT 9:41 PM CDT
Nautical Twilight 4:15 AM CDT 10:29 PM CDT
Astronomical Twilight 3:14 AM CDT 11:29 PM CDT
Moon 5:08 PM CDT (7/8) 2:18 AM CDT (7/8)
Length of Visible Light 16h 38m
Length of Day
15h 25m
Waxing Gibbous, 81% of the Moon is Illuminated
Jul 8
Waxing Gibbous
Jul 12
Full
Jul 18
Last Quarter
Jul 26
New
Aug 3
First Quarter

Hourly Weather History & Observations

Time (CDT) Temp. Dew Point Humidity Pressure Visibility Wind Dir Wind Speed Gust Speed Precip Events Conditions
12:13 AM 66.9 °F 59.9 °F 78% 29.71 in 10.0 mi WNW 12.7 mph - N/A   Clear
12:33 AM 66.2 °F 59.4 °F 79% 29.71 in 10.0 mi WNW 13.8 mph 19.6 mph N/A   Clear
12:53 AM 66.0 °F 58.8 °F 78% 29.72 in 10.0 mi WNW 15.0 mph 21.9 mph N/A   Clear
1:13 AM 65.5 °F 58.1 °F 77% 29.72 in 10.0 mi WNW 11.5 mph 19.6 mph N/A   Clear
1:32 AM 64.8 °F 59.0 °F 82% 29.73 in 10.0 mi West 11.5 mph - N/A   Clear
1:53 AM 64.6 °F 59.0 °F 82% 29.73 in 10.0 mi West 12.7 mph - N/A   Clear
2:12 AM 64.4 °F 58.6 °F 82% 29.75 in 10.0 mi West 12.7 mph 18.4 mph N/A   Clear
2:33 AM 64.0 °F 58.5 °F 82% 29.75 in 10.0 mi WNW 10.4 mph 16.1 mph N/A   Clear
2:52 AM 63.5 °F 58.5 °F 84% 29.75 in 10.0 mi West 11.5 mph - N/A   Clear
3:13 AM 62.6 °F 58.5 °F 86% 29.75 in 10.0 mi WNW 11.5 mph - N/A   Clear
3:32 AM 62.2 °F 58.1 °F 86% 29.75 in 10.0 mi West 10.4 mph - N/A   Clear
3:53 AM 61.9 °F 58.1 °F 87% 29.75 in 10.0 mi West 12.7 mph - N/A   Clear
4:13 AM 61.7 °F 58.1 °F 88% 29.76 in 10.0 mi West 12.7 mph - N/A   Clear
4:33 AM 61.2 °F 58.1 °F 90% 29.77 in 10.0 mi West 11.5 mph - N/A   Clear
4:52 AM 61.0 °F 57.7 °F 89% 29.77 in 10.0 mi West 12.7 mph - N/A   Clear
5:13 AM 60.4 °F 57.4 °F 90% 29.77 in 10.0 mi West 11.5 mph - N/A   Clear
5:33 AM 59.9 °F 57.2 °F 91% 29.78 in 10.0 mi West 12.7 mph - N/A   Clear
5:53 AM 59.9 °F 57.0 °F 90% 29.79 in 10.0 mi West 12.7 mph - N/A   Clear
6:12 AM 59.9 °F 56.8 °F 90% 29.79 in 10.0 mi West 13.8 mph - N/A   Clear
6:53 AM 60.8 °F 57.7 °F 90% 29.81 in 10.0 mi West 11.5 mph - N/A   Clear
7:12 AM 61.5 °F 58.1 °F 89% 29.81 in 10.0 mi West 11.5 mph 17.3 mph N/A   Clear
7:33 AM 62.6 °F 58.5 °F 86% 29.81 in 10.0 mi WNW 12.7 mph 17.3 mph N/A   Clear
7:53 AM 63.1 °F 58.6 °F 85% 29.81 in 10.0 mi WNW 11.5 mph - N/A   Clear
8:13 AM 63.9 °F 59.0 °F 84% 29.82 in 10.0 mi WNW 12.7 mph - N/A   Clear
8:32 AM 64.8 °F 59.2 °F 82% 29.82 in 10.0 mi WNW 13.8 mph - N/A   Clear
8:53 AM 65.5 °F 59.9 °F 82% 29.83 in 10.0 mi West 15.0 mph 18.4 mph N/A   Clear
9:13 AM 66.6 °F 60.1 °F 80% 29.83 in 10.0 mi WNW 16.1 mph 21.9 mph N/A   Clear
9:33 AM 67.3 °F 60.1 °F 78% 29.83 in 10.0 mi WNW 12.7 mph 20.7 mph N/A   Clear
9:53 AM 68.4 °F 59.9 °F 74% 29.83 in 10.0 mi WNW 13.8 mph 20.7 mph N/A   Clear
10:13 AM 69.8 °F 60.1 °F 71% 29.83 in 10.0 mi WNW 12.7 mph 18.4 mph N/A   Clear
10:32 AM 69.8 °F 59.9 °F 71% 29.83 in 10.0 mi NW 18.4 mph 21.9 mph N/A   Clear
10:53 AM 71.4 °F 60.3 °F 68% 29.83 in 10.0 mi NW 16.1 mph 25.3 mph N/A   Scattered Clouds
11:13 AM 70.7 °F 59.5 °F 68% 29.84 in 10.0 mi WNW 17.3 mph 27.6 mph N/A   Mostly Cloudy
11:33 AM 72.1 °F 60.6 °F 67% 29.84 in 10.0 mi West 18.4 mph 24.2 mph N/A   Mostly Cloudy
11:53 AM 71.8 °F 59.7 °F 66% 29.84 in 10.0 mi West 19.6 mph 27.6 mph N/A   Mostly Cloudy
12:13 PM 72.5 °F 59.5 °F 64% 29.84 in 10.0 mi WNW 20.7 mph 29.9 mph N/A   Mostly Cloudy
12:33 PM 73.0 °F 58.5 °F 60% 29.85 in 10.0 mi WNW 18.4 mph 26.5 mph N/A   Scattered Clouds
12:53 PM 73.2 °F 57.4 °F 57% 29.85 in 10.0 mi WNW 20.7 mph 28.8 mph N/A   Scattered Clouds
1:12 PM 73.9 °F 57.0 °F 55% 29.85 in 10.0 mi WNW 23.0 mph 28.8 mph N/A   Scattered Clouds
1:33 PM 73.4 °F 56.7 °F 56% 29.86 in 10.0 mi NW 19.6 mph 26.5 mph N/A   Mostly Cloudy
1:53 PM 74.8 °F 56.8 °F 53% 29.86 in 10.0 mi NW 19.6 mph 24.2 mph N/A   Mostly Cloudy
2:12 PM 73.6 °F 54.3 °F 51% 29.87 in 10.0 mi NW 20.7 mph 26.5 mph N/A   Scattered Clouds
2:33 PM 74.5 °F 54.5 °F 50% 29.87 in 10.0 mi WNW 18.4 mph 28.8 mph N/A   Clear
2:53 PM 74.5 °F 54.7 °F 50% 29.87 in 10.0 mi WNW 18.4 mph 26.5 mph N/A   Scattered Clouds
3:13 PM 74.5 °F 54.5 °F 50% 29.87 in 10.0 mi WNW 19.6 mph 26.5 mph N/A   Clear
3:32 PM 74.8 °F 53.2 °F 47% 29.87 in 10.0 mi WNW 20.7 mph 25.3 mph N/A   Clear
4:13 PM 75.0 °F 52.7 °F 46% 29.88 in 10.0 mi NW 19.6 mph 26.5 mph N/A   Clear
4:33 PM 75.0 °F 52.3 °F 45% 29.88 in 10.0 mi NW 17.3 mph 26.5 mph N/A   Clear
4:53 PM 75.0 °F 52.2 °F 45% 29.88 in 10.0 mi WNW 19.6 mph 25.3 mph N/A   Clear
5:12 PM 75.2 °F 53.1 °F 46% 29.89 in 10.0 mi WNW 16.1 mph 23.0 mph N/A   Clear
5:32 PM 75.2 °F 51.3 °F 43% 29.89 in 10.0 mi NW 16.1 mph 24.2 mph N/A   Clear
5:53 PM 74.8 °F 51.4 °F 44% 29.89 in 10.0 mi WNW 13.8 mph 24.2 mph N/A   Clear
6:13 PM 75.2 °F 51.3 °F 43% 29.89 in 10.0 mi NW 13.8 mph 25.3 mph N/A   Clear
6:32 PM 74.8 °F 51.4 °F 44% 29.89 in 10.0 mi WNW 17.3 mph 25.3 mph N/A   Clear
6:53 PM 74.3 °F 52.0 °F 46% 29.89 in 10.0 mi NW 20.7 mph 26.5 mph N/A   Clear
7:13 PM 73.8 °F 51.1 °F 45% 29.90 in 10.0 mi NW 19.6 mph 24.2 mph N/A   Clear
7:32 PM 73.4 °F 51.8 °F 47% 29.90 in 10.0 mi NW 15.0 mph 23.0 mph N/A   Clear
7:53 PM 72.5 °F 52.5 °F 49% 29.90 in 10.0 mi NW 11.5 mph 19.6 mph N/A   Clear
8:13 PM 71.6 °F 51.8 °F 50% 29.91 in 10.0 mi NW 13.8 mph - N/A   Clear
8:33 PM 70.0 °F 52.5 °F 54% 29.91 in 10.0 mi NW 12.7 mph - N/A   Clear
8:52 PM 68.9 °F 52.2 °F 55% 29.92 in 10.0 mi NNW 12.7 mph 20.7 mph N/A   Clear
9:13 PM 67.6 °F 52.9 °F 59% 29.92 in 10.0 mi NW 10.4 mph - N/A   Clear
9:33 PM 67.1 °F 52.9 °F 60% 29.94 in 10.0 mi NW 9.2 mph - N/A   Clear
9:53 PM 65.8 °F 53.2 °F 64% 29.94 in 10.0 mi NW 9.2 mph - N/A   Clear
10:13 PM 65.3 °F 53.6 °F 66% 29.95 in 10.0 mi WNW 6.9 mph - N/A   Clear
10:32 PM 64.6 °F 53.6 °F 68% 29.95 in 10.0 mi WNW 6.9 mph - N/A   Clear
10:53 PM 62.4 °F 54.5 °F 75% 29.95 in 10.0 mi WNW 4.6 mph - N/A   Clear
11:13 PM 62.6 °F 54.1 °F 74% 29.96 in 10.0 mi WNW 4.6 mph - N/A   Clear
11:33 PM 61.2 °F 54.5 °F 79% 29.96 in 10.0 mi WNW 4.6 mph - N/A   Clear
11:53 PM 62.1 °F 54.1 °F 75% 29.96 in 10.0 mi WNW 6.9 mph - N/A   Clear